• In Hungary
  • List of Countries
  • For 7 days
  • Water Temperature
  • Satellite Maps
  • Weather Map
  • News
  • Weather Widgets
  • user-avatar
    Login

    Hourly Weather Witkowo

    Today, 22 November, Wednesday

    Time Temperature Precipitation Wind Pressure Humidity
    00:00 0°C° 0 mm 3 mps 757 mmHg 93%
    01:00 0°C° 0 mm 3 mps 757 mmHg 93%
    02:00 -1°C° 0 mm 4 mps 756 mmHg 93%
    03:00 -1°C° 0 mm 4 mps 756 mmHg 93%
    04:00 -1°C° 0 mm 5 mps 755 mmHg 93%
    05:00 -2°C° 0.3 mm 6 mps 755 mmHg 91%
    06:00 -1°C° 0.3 mm 6 mps 754 mmHg 88%
    07:00 -1°C° 0.3 mm 7 mps 754 mmHg 86%
    08:00 -1°C° 1.1 mm 8 mps 754 mmHg 87%
    09:00 -1°C° 1.1 mm 8 mps 753 mmHg 87%
    10:00 -1°C° 1.1 mm 9 mps 753 mmHg 88%
    11:00 0°C° 0.6 mm 8 mps 753 mmHg 89%
    12:00 0°C° 0.6 mm 8 mps 753 mmHg 90%
    13:00 0°C° 0.6 mm 7 mps 753 mmHg 91%
    14:00 0°C° 0.2 mm 7 mps 752 mmHg 92%
    15:00 +2°C° 0.2 mm 6 mps 752 mmHg 94%
    16:00 +2°C° 0.2 mm 6 mps 752 mmHg 95%
    17:00 +2°C° 0.2 mm 6 mps 752 mmHg 96%
    18:00 +3°C° 0.2 mm 5 mps 753 mmHg 96%
    19:00 +3°C° 0.2 mm 5 mps 753 mmHg 97%
    20:00 +5°C° 0.2 mm 5 mps 753 mmHg 97%
    21:00 +5°C° 0.2 mm 5 mps 753 mmHg 97%
    22:00 +5°C° 0.2 mm 6 mps 753 mmHg 97%
    23:00 +4°C° 0 mm 6 mps 753 mmHg 96%

    Tomorrow, 23 November, Thursday

    Time Temperature Precipitation Wind Pressure Humidity
    00:00 +4°C° 0 mm 6 mps 753 mmHg 96%
    01:00 +4°C° 0 mm 6 mps 753 mmHg 96%
    02:00 +4°C° 0 mm 6 mps 753 mmHg 94%
    03:00 +4°C° 0 mm 6 mps 753 mmHg 93%
    04:00 +3°C° 0 mm 6 mps 753 mmHg 92%
    05:00 +3°C° 0 mm 7 mps 753 mmHg 89%
    06:00 +3°C° 0 mm 7 mps 753 mmHg 87%
    07:00 +3°C° 0 mm 7 mps 753 mmHg 84%
    08:00 +4°C° 0 mm 7 mps 753 mmHg 80%
    09:00 +5°C° 0 mm 8 mps 753 mmHg 75%
    10:00 +5°C° 0 mm 8 mps 753 mmHg 70%
    11:00 +6°C° 0 mm 8 mps 753 mmHg 68%
    12:00 +7°C° 0 mm 8 mps 753 mmHg 66%
    13:00 +7°C° 0 mm 8 mps 752 mmHg 64%
    14:00 +7°C° 0 mm 8 mps 753 mmHg 67%
    15:00 +6°C° 0 mm 7 mps 753 mmHg 69%
    16:00 +6°C° 0 mm 7 mps 753 mmHg 72%
    17:00 +6°C° 0 mm 7 mps 753 mmHg 73%
    18:00 +6°C° 0 mm 7 mps 753 mmHg 75%
    19:00 +6°C° 0 mm 7 mps 753 mmHg 76%
    20:00 +6°C° 0 mm 8 mps 754 mmHg 78%
    21:00 +7°C° 0 mm 8 mps 754 mmHg 80%
    22:00 +7°C° 0 mm 8 mps 754 mmHg 81%
    23:00 +7°C° 0 mm 8 mps 754 mmHg 83%

    Day after tomorrow, 24 November, Friday

    Time Temperature Precipitation Wind Pressure Humidity
    00:00 +8°C° 0 mm 7 mps 755 mmHg 85%
    01:00 +8°C° 0 mm 7 mps 755 mmHg 86%
    02:00 +8°C° 0 mm 7 mps 755 mmHg 88%
    03:00 +8°C° 0 mm 6 mps 756 mmHg 90%
    04:00 +8°C° 0 mm 5 mps 756 mmHg 91%
    05:00 +7°C° 0 mm 5 mps 756 mmHg 92%
    06:00 +7°C° 0 mm 5 mps 756 mmHg 93%
    07:00 +6°C° 0 mm 5 mps 757 mmHg 94%
    08:00 +7°C° 0 mm 6 mps 756 mmHg 91%
    09:00 +8°C° 0 mm 7 mps 756 mmHg 88%
    10:00 +9°C° 0 mm 8 mps 756 mmHg 85%
    11:00 +9°C° 0 mm 8 mps 756 mmHg 82%
    12:00 +10°C° 0 mm 8 mps 755 mmHg 79%
    13:00 +11°C° 0 mm 8 mps 755 mmHg 77%
    14:00 +10°C° 0.1 mm 8 mps 755 mmHg 79%
    15:00 +9°C° 0.1 mm 7 mps 755 mmHg 82%
    16:00 +9°C° 0.1 mm 6 mps 756 mmHg 85%
    17:00 +9°C° 0.5 mm 6 mps 756 mmHg 85%
    18:00 +9°C° 0.5 mm 6 mps 756 mmHg 86%
    19:00 +9°C° 0.5 mm 5 mps 756 mmHg 86%
    20:00 +10°C° 0.6 mm 4 mps 756 mmHg 87%
    21:00 +10°C° 0.6 mm 4 mps 756 mmHg 88%
    22:00 +9°C° 0.6 mm 3 mps 757 mmHg 90%
    23:00 +9°C° 0.4 mm 3 mps 756 mmHg 90%

    25 November, Saturday

    Time Temperature Precipitation Wind Pressure Humidity
    00:00 +9°C° 0.4 mm 3 mps 756 mmHg 91%
    01:00 +9°C° 0.4 mm 3 mps 756 mmHg 91%
    02:00 +8°C° 0.2 mm 4 mps 756 mmHg 90%
    03:00 +8°C° 0.2 mm 4 mps 755 mmHg 89%
    04:00 +8°C° 0.2 mm 5 mps 755 mmHg 88%
    05:00 +8°C° 0.1 mm 6 mps 754 mmHg 86%
    06:00 +8°C° 0.1 mm 6 mps 753 mmHg 84%
    07:00 +8°C° 0.1 mm 7 mps 752 mmHg 82%
    08:00 +8°C° 0.1 mm 7 mps 752 mmHg 79%
    09:00 +7°C° 0.1 mm 8 mps 751 mmHg 76%
    10:00 +9°C° 0.1 mm 8 mps 750 mmHg 73%
    11:00 +9°C° 0 mm 8 mps 750 mmHg 71%
    12:00 +8°C° 0 mm 9 mps 749 mmHg 70%
    13:00 +10°C° 0 mm 9 mps 749 mmHg 68%
    14:00 +8°C° 0.1 mm 9 mps 749 mmHg 71%
    15:00 +8°C° 0.1 mm 9 mps 749 mmHg 73%
    16:00 +8°C° 0.1 mm 9 mps 749 mmHg 76%
    17:00 +7°C° 0.2 mm 9 mps 749 mmHg 71%
    18:00 +7°C° 0.2 mm 10 mps 749 mmHg 67%
    19:00 +6°C° 0.2 mm 10 mps 750 mmHg 62%
    20:00 +6°C° 0 mm 11 mps 750 mmHg 62%
    21:00 +4°C° 0 mm 11 mps 751 mmHg 61%
    22:00 +3°C° 0 mm 12 mps 751 mmHg 61%
    23:00 +3°C° 0 mm 12 mps 751 mmHg 62%

    26 November, Sunday

    Time Temperature Precipitation Wind Pressure Humidity
    00:00 +2°C° 0 mm 12 mps 752 mmHg 64%
    01:00 +2°C° 0 mm 12 mps 752 mmHg 65%
    02:00 +1°C° 0 mm 11 mps 752 mmHg 66%
    03:00 +1°C° 0 mm 11 mps 752 mmHg 67%
    04:00 -1°C° 0 mm 11 mps 753 mmHg 68%
    05:00 -1°C° 0.1 mm 11 mps 753 mmHg 68%
    06:00 -1°C° 0.1 mm 11 mps 753 mmHg 69%
    07:00 -1°C° 0.1 mm 11 mps 753 mmHg 70%
    08:00 -1°C° 0 mm 11 mps 754 mmHg 70%
    09:00 -1°C° 0 mm 11 mps 754 mmHg 69%
    10:00 -1°C° 0 mm 11 mps 754 mmHg 69%
    11:00 +1°C° 0 mm 11 mps 754 mmHg 68%
    12:00 +1°C° 0 mm 11 mps 754 mmHg 66%
    13:00 +2°C° 0 mm 11 mps 754 mmHg 65%
    14:00 +1°C° 0 mm 10 mps 754 mmHg 66%
    15:00 +1°C° 0 mm 10 mps 754 mmHg 67%
    16:00 0°C° 0 mm 10 mps 753 mmHg 68%
    17:00 +1°C° 0 mm 9 mps 753 mmHg 71%
    18:00 +1°C° 0 mm 9 mps 753 mmHg 74%
    19:00 +1°C° 0 mm 9 mps 753 mmHg 77%
    20:00 +2°C° 0.3 mm 9 mps 753 mmHg 78%
    21:00 +2°C° 0.3 mm 10 mps 753 mmHg 79%
    22:00 +2°C° 0.3 mm 10 mps 753 mmHg 80%
    23:00 +2°C° 0.2 mm 10 mps 753 mmHg 79%

    27 November, Monday

    Time Temperature Precipitation Wind Pressure Humidity
    00:00 +2°C° 0.2 mm 10 mps 753 mmHg 78%
    01:00 +2°C° 0.2 mm 10 mps 754 mmHg 77%
    02:00 +2°C° 0.1 mm 10 mps 754 mmHg 77%
    03:00 +1°C° 0.1 mm 10 mps 754 mmHg 76%
    04:00 +1°C° 0.1 mm 10 mps 754 mmHg 76%
    05:00 +1°C° 0.1 mm 10 mps 754 mmHg 76%
    06:00 +1°C° 0.1 mm 10 mps 754 mmHg 77%
    07:00 0°C° 0.1 mm 10 mps 755 mmHg 78%
    08:00 +1°C° 0.1 mm 10 mps 755 mmHg 77%
    09:00 +1°C° 0.1 mm 10 mps 755 mmHg 77%
    10:00 +1°C° 0.1 mm 10 mps 756 mmHg 77%
    11:00 +1°C° 0.1 mm 10 mps 756 mmHg 75%
    12:00 +2°C° 0.1 mm 10 mps 756 mmHg 74%
    13:00 +2°C° 0.1 mm 10 mps 756 mmHg 72%
    14:00 +2°C° 0.2 mm 10 mps 756 mmHg 73%
    15:00 +2°C° 0.2 mm 10 mps 757 mmHg 74%
    16:00 +2°C° 0.2 mm 10 mps 757 mmHg 75%
    17:00 +1°C° 0.2 mm 10 mps 757 mmHg 75%
    18:00 +1°C° 0.2 mm 9 mps 757 mmHg 76%
    19:00 +1°C° 0.2 mm 9 mps 757 mmHg 76%
    20:00 +1°C° 0.1 mm 9 mps 758 mmHg 77%
    21:00 0°C° 0.1 mm 9 mps 758 mmHg 79%
    22:00 0°C° 0.1 mm 8 mps 758 mmHg 80%
    23:00 0°C° 0 mm 8 mps 758 mmHg 81%
    Show more